Time,TemperatureF,DewpointF,PressureIn,WindDirection,WindDirectionDegrees,WindSpeedMPH,WindSpeedGustMPH,Humidity,HourlyPrecipIn,Conditions,Clouds,dailyrainin,SoftwareType,DateUTC
2013-01-27 00:12:00,19.5,17.0,30.68,West,267,0.0,0.0,90,0.00,,,0.00,weatherlink.com 1.10,2013-01-27 05:12:00,
2013-01-27 00:27:00,19.5,17.0,30.67,NW,309,1.0,4.0,90,0.00,,,0.00,weatherlink.com 1.10,2013-01-27 05:27:00,
2013-01-27 00:42:00,19.3,17.0,30.68,NW,304,0.0,0.0,90,0.00,,,0.00,weatherlink.com 1.10,2013-01-27 05:42:00,
2013-01-27 00:57:00,19.2,17.0,30.68,NW,304,0.0,0.0,90,0.00,,,0.00,weatherlink.com 1.10,2013-01-27 05:57:00,
2013-01-27 01:27:00,18.9,17.0,30.67,NW,304,0.0,0.0,90,0.00,,,0.00,weatherlink.com 1.10,2013-01-27 06:27:00,
2013-01-27 01:42:00,18.8,16.0,30.67,NW,306,0.0,0.0,90,0.00,,,0.00,weatherlink.com 1.10,2013-01-27 06:42:00,
2013-01-27 01:57:00,18.7,16.0,30.67,NW,306,0.0,0.0,90,0.00,,,0.00,weatherlink.com 1.10,2013-01-27 06:57:00,
2013-01-27 02:27:00,18.4,16.0,30.68,NNW,328,0.0,0.0,90,0.00,,,0.00,weatherlink.com 1.10,2013-01-27 07:27:00,
2013-01-27 02:42:00,18.4,16.0,30.67,NNW,328,0.0,0.0,90,0.00,,,0.00,weatherlink.com 1.10,2013-01-27 07:42:00,
2013-01-27 02:57:00,18.1,16.0,30.68,NNW,331,0.0,1.0,90,0.00,,,0.00,weatherlink.com 1.10,2013-01-27 07:57:00,
2013-01-27 03:12:00,18.1,16.0,30.68,SSE,159,1.0,3.0,90,0.00,,,0.00,weatherlink.com 1.10,2013-01-27 08:12:00,
2013-01-27 03:27:00,18.0,16.0,30.67,ESE,120,0.0,1.0,90,0.00,,,0.00,weatherlink.com 1.10,2013-01-27 08:27:00,
2013-01-27 03:42:00,18.0,16.0,30.66,ESE,117,0.0,3.0,90,0.00,,,0.00,weatherlink.com 1.10,2013-01-27 08:42:00,
2013-01-27 03:57:00,17.8,15.0,30.67,ESE,103,0.0,2.0,90,0.00,,,0.00,weatherlink.com 1.10,2013-01-27 08:57:00,
2013-01-27 04:12:00,17.7,15.0,30.67,ENE,77,0.0,3.0,90,0.00,,,0.00,weatherlink.com 1.10,2013-01-27 09:12:00,
2013-01-27 04:27:00,17.6,15.0,30.68,ESE,119,0.0,4.0,90,0.00,,,0.00,weatherlink.com 1.10,2013-01-27 09:27:00,
2013-01-27 04:42:00,17.6,16.0,30.69,ESE,119,0.0,0.0,91,0.00,,,0.00,weatherlink.com 1.10,2013-01-27 09:42:00,
2013-01-27 04:57:00,17.5,15.0,30.69,East,94,0.0,3.0,91,0.00,,,0.00,weatherlink.com 1.10,2013-01-27 09:57:00,
2013-01-27 05:12:00,17.3,15.0,30.68,East,84,0.0,0.0,90,0.00,,,0.00,weatherlink.com 1.10,2013-01-27 10:12:00,
2013-01-27 05:27:00,16.5,14.0,30.68,East,84,0.0,0.0,89,0.00,,,0.00,weatherlink.com 1.10,2013-01-27 10:27:00,
2013-01-27 05:42:00,14.8,12.0,30.68,East,84,0.0,0.0,89,0.00,,,0.00,weatherlink.com 1.10,2013-01-27 10:42:00,
2013-01-27 05:57:00,13.9,11.0,30.68,East,84,0.0,0.0,89,0.00,,,0.00,weatherlink.com 1.10,2013-01-27 10:57:00,
2013-01-27 06:12:00,13.4,11.0,30.69,East,84,0.0,0.0,89,0.00,,,0.00,weatherlink.com 1.10,2013-01-27 11:12:00,
2013-01-27 06:27:00,13.1,11.0,30.70,East,84,0.0,0.0,89,0.00,,,0.00,weatherlink.com 1.10,2013-01-27 11:27:00,
2013-01-27 06:42:00,12.6,10.0,30.71,East,84,0.0,0.0,90,0.00,,,0.00,weatherlink.com 1.10,2013-01-27 11:42:00,
2013-01-27 06:57:00,12.5,10.0,30.71,East,84,0.0,0.0,90,0.00,,,0.00,weatherlink.com 1.10,2013-01-27 11:57:00,
2013-01-27 07:12:00,12.2,10.0,30.72,East,84,0.0,0.0,90,0.00,,,0.00,weatherlink.com 1.10,2013-01-27 12:12:00,
2013-01-27 07:27:00,11.8,9.0,30.73,East,84,0.0,0.0,89,0.00,,,0.00,weatherlink.com 1.10,2013-01-27 12:27:00,
2013-01-27 07:42:00,11.8,10.0,30.73,East,84,0.0,0.0,90,0.00,,,0.00,weatherlink.com 1.10,2013-01-27 12:42:00,
2013-01-27 07:57:00,11.7,9.0,30.74,East,84,0.0,0.0,90,0.00,,,0.00,weatherlink.com 1.10,2013-01-27 12:57:00,
2013-01-27 08:12:00,11.9,10.0,30.74,East,84,0.0,0.0,90,0.00,,,0.00,weatherlink.com 1.10,2013-01-27 13:12:00,
2013-01-27 08:27:00,12.8,11.0,30.74,East,88,0.0,0.0,91,0.00,,,0.00,weatherlink.com 1.10,2013-01-27 13:27:00,
2013-01-27 08:43:00,14.9,13.0,30.75,SSE,168,0.0,1.0,93,0.00,,,0.00,weatherlink.com 1.10,2013-01-27 13:43:00,
2013-01-27 08:58:00,17.2,16.0,30.76,ESE,104,0.0,2.0,93,0.00,,,0.00,weatherlink.com 1.10,2013-01-27 13:58:00,
2013-01-27 09:13:00,19.4,18.0,30.76,ENE,71,0.0,3.0,92,0.00,,,0.00,weatherlink.com 1.10,2013-01-27 14:13:00,
2013-01-27 09:28:00,21.4,19.0,30.76,ESE,107,0.0,2.0,89,0.00,,,0.00,weatherlink.com 1.10,2013-01-27 14:28:00,
2013-01-27 09:43:00,23.1,20.0,30.76,NNE,29,0.0,0.0,87,0.00,,,0.00,weatherlink.com 1.10,2013-01-27 14:43:00,
2013-01-27 09:58:00,25.8,22.0,30.77,SE,142,0.0,0.0,85,0.00,,,0.00,weatherlink.com 1.10,2013-01-27 14:58:00,
2013-01-27 10:13:00,25.0,20.0,30.76,ENE,59,1.0,10.0,82,0.00,,,0.00,weatherlink.com 1.10,2013-01-27 15:13:00,
2013-01-27 10:28:00,25.6,21.0,30.77,East,100,1.0,11.0,84,0.00,,,0.00,weatherlink.com 1.10,2013-01-27 15:28:00,
2013-01-27 10:43:00,25.6,21.0,30.77,ESE,103,3.0,8.0,81,0.00,,,0.00,weatherlink.com 1.10,2013-01-27 15:43:00,
2013-01-27 10:58:00,27.6,23.0,30.77,East,98,0.0,3.0,82,0.00,,,0.00,weatherlink.com 1.10,2013-01-27 15:58:00,
2013-01-27 11:13:00,29.5,24.0,30.77,East,82,0.0,3.0,81,0.00,,,0.00,weatherlink.com 1.10,2013-01-27 16:13:00,
2013-01-27 11:28:00,29.1,23.0,30.76,ESE,107,0.0,6.0,77,0.00,,,0.00,weatherlink.com 1.10,2013-01-27 16:28:00,
2013-01-27 11:43:00,29.3,23.0,30.74,ESE,102,0.0,3.0,77,0.00,,,0.00,weatherlink.com 1.10,2013-01-27 16:43:00,
2013-01-27 11:58:00,29.3,23.0,30.74,SSE,155,1.0,10.0,77,0.00,,,0.00,weatherlink.com 1.10,2013-01-27 16:58:00,
2013-01-27 12:13:00,29.5,23.0,30.73,NE,55,1.0,8.0,77,0.00,,,0.00,weatherlink.com 1.10,2013-01-27 17:13:00,
2013-01-27 12:28:00,30.1,23.0,30.73,ENE,74,0.0,6.0,75,0.00,,,0.00,weatherlink.com 1.10,2013-01-27 17:28:00,
2013-01-27 12:43:00,30.2,24.0,30.72,ESE,119,0.0,5.0,77,0.03,,,0.03,weatherlink.com 1.10,2013-01-27 17:43:00,
2013-01-27 12:58:00,30.5,24.0,30.72,NNE,14,0.0,3.0,77,0.05,,,0.05,weatherlink.com 1.10,2013-01-27 17:58:00,
2013-01-27 13:13:00,31.2,24.0,30.72,ESE,120,0.0,5.0,76,0.07,,,0.07,weatherlink.com 1.10,2013-01-27 18:13:00,
2013-01-27 13:28:00,31.5,25.0,30.72,East,94,0.0,3.0,77,0.09,,,0.09,weatherlink.com 1.10,2013-01-27 18:28:00,
2013-01-27 13:43:00,32.2,24.0,30.71,ESE,107,2.0,6.0,73,0.08,,,0.11,weatherlink.com 1.10,2013-01-27 18:43:00,
2013-01-27 13:58:00,31.6,24.0,30.70,SSE,165,1.0,7.0,73,0.08,,,0.13,weatherlink.com 1.10,2013-01-27 18:58:00,
2013-01-27 14:13:00,31.6,24.0,30.70,ESE,106,1.0,7.0,73,0.08,,,0.15,weatherlink.com 1.10,2013-01-27 19:13:00,
2013-01-27 14:28:00,31.9,24.0,30.70,ESE,104,1.0,9.0,73,0.06,,,0.15,weatherlink.com 1.10,2013-01-27 19:28:00,
2013-01-27 14:43:00,31.9,24.0,30.70,ESE,107,1.0,7.0,72,0.06,,,0.17,weatherlink.com 1.10,2013-01-27 19:43:00,
2013-01-27 14:58:00,31.8,24.0,30.70,East,79,1.0,3.0,72,0.04,,,0.17,weatherlink.com 1.10,2013-01-27 19:58:00,
2013-01-27 15:13:00,32.1,25.0,30.70,East,98,0.0,3.0,75,0.04,,,0.19,weatherlink.com 1.10,2013-01-27 20:13:00,
2013-01-27 15:28:00,32.0,24.0,30.70,SE,128,0.0,3.0,73,0.04,,,0.19,weatherlink.com 1.10,2013-01-27 20:28:00,
2013-01-27 15:43:00,31.8,24.0,30.70,East,96,2.0,4.0,74,0.04,,,0.21,weatherlink.com 1.10,2013-01-27 20:43:00,
2013-01-27 15:58:00,31.4,24.0,30.70,East,98,1.0,5.0,74,0.04,,,0.21,weatherlink.com 1.10,2013-01-27 20:58:00,
2013-01-27 16:13:00,31.4,24.0,30.70,ESE,109,2.0,5.0,75,0.03,,,0.22,weatherlink.com 1.10,2013-01-27 21:13:00,
2013-01-27 16:28:00,31.3,25.0,30.70,ESE,121,0.0,2.0,76,0.02,,,0.00,weatherlink.com 1.10,2013-01-27 21:28:00,
2013-01-27 16:43:00,31.3,25.0,30.71,North,5,0.0,4.0,76,0.02,,,0.01,weatherlink.com 1.10,2013-01-27 21:43:00,
2013-01-27 16:58:00,31.4,25.0,30.70,NNE,23,0.0,1.0,76,0.02,,,0.01,weatherlink.com 1.10,2013-01-27 21:58:00,
2013-01-27 17:13:00,31.2,25.0,30.70,NE,46,0.0,1.0,78,0.02,,,0.02,weatherlink.com 1.10,2013-01-27 22:13:00,
2013-01-27 17:28:00,30.8,24.0,30.70,East,80,3.0,3.0,76,0.02,,,0.02,weatherlink.com 1.10,2013-01-27 22:28:00,
2013-01-27 17:43:00,30.5,23.0,30.70,East,84,3.0,6.0,75,0.01,,,0.02,weatherlink.com 1.10,2013-01-27 22:43:00,
2013-01-27 17:58:00,30.4,24.0,30.70,ESE,119,0.0,4.0,77,0.02,,,0.03,weatherlink.com 1.10,2013-01-27 22:58:00,
2013-01-27 18:13:00,30.4,24.0,30.70,ESE,115,2.0,7.0,76,0.01,,,0.03,weatherlink.com 1.10,2013-01-27 23:13:00,
2013-01-27 18:29:00,30.8,24.0,30.69,ESE,115,0.0,10.0,75,0.01,,,0.03,weatherlink.com 1.10,2013-01-27 23:29:00,
2013-01-27 18:44:00,30.8,23.0,30.69,East,99,6.0,9.0,74,0.01,,,0.03,weatherlink.com 1.10,2013-01-27 23:44:00,
2013-01-27 18:59:00,30.9,24.0,30.69,East,98,5.0,11.0,75,0.00,,,0.03,weatherlink.com 1.10,2013-01-27 23:59:00,
2013-01-27 19:14:00,30.7,24.0,30.68,East,89,0.0,9.0,76,0.00,,,0.03,weatherlink.com 1.10,2013-01-28 00:14:00,
2013-01-27 19:29:00,30.9,24.0,30.69,ESE,103,4.0,8.0,75,0.00,,,0.03,weatherlink.com 1.10,2013-01-28 00:29:00,
2013-01-27 19:44:00,31.0,24.0,30.68,ESE,109,1.0,9.0,76,0.01,,,0.04,weatherlink.com 1.10,2013-01-28 00:44:00,
2013-01-27 19:59:00,31.5,24.0,30.68,East,96,2.0,10.0,74,0.01,,,0.04,weatherlink.com 1.10,2013-01-28 00:59:00,
2013-01-27 20:14:00,31.5,24.0,30.67,ESE,107,2.0,10.0,73,0.01,,,0.04,weatherlink.com 1.10,2013-01-28 01:14:00,
2013-01-27 20:29:00,31.6,24.0,30.67,ESE,111,3.0,11.0,72,0.01,,,0.04,weatherlink.com 1.10,2013-01-28 01:29:00,
2013-01-27 20:44:00,31.8,23.0,30.67,East,80,6.0,9.0,71,0.00,,,0.04,weatherlink.com 1.10,2013-01-28 01:44:00,
2013-01-27 20:59:00,32.1,24.0,30.67,ESE,104,2.0,9.0,72,0.00,,,0.04,weatherlink.com 1.10,2013-01-28 01:59:00,
2013-01-27 21:14:00,32.6,24.0,30.66,ESE,104,1.0,9.0,70,0.00,,,0.04,weatherlink.com 1.10,2013-01-28 02:14:00,
2013-01-27 21:29:00,32.7,23.0,30.66,ESE,106,5.0,11.0,68,0.00,,,0.04,weatherlink.com 1.10,2013-01-28 02:29:00,
2013-01-27 21:44:00,32.7,24.0,30.66,East,101,2.0,7.0,70,0.00,,,0.04,weatherlink.com 1.10,2013-01-28 02:44:00,
2013-01-27 21:59:00,32.5,24.0,30.65,East,97,3.0,9.0,70,0.00,,,0.04,weatherlink.com 1.10,2013-01-28 02:59:00,
2013-01-27 22:14:00,32.2,24.0,30.66,East,96,5.0,7.0,71,0.00,,,0.04,weatherlink.com 1.10,2013-01-28 03:14:00,
2013-01-27 22:29:00,32.3,24.0,30.65,East,99,1.0,6.0,72,0.00,,,0.04,weatherlink.com 1.10,2013-01-28 03:29:00,
2013-01-27 22:44:00,32.4,24.0,30.64,ESE,105,3.0,8.0,71,0.00,,,0.04,weatherlink.com 1.10,2013-01-28 03:44:00,
2013-01-27 22:59:00,32.5,24.0,30.64,East,96,2.0,5.0,71,0.00,,,0.04,weatherlink.com 1.10,2013-01-28 03:59:00,
2013-01-27 23:14:00,32.6,24.0,30.64,ESE,114,1.0,7.0,70,0.00,,,0.04,weatherlink.com 1.10,2013-01-28 04:14:00,
2013-01-27 23:29:00,32.5,24.0,30.64,ESE,113,1.0,8.0,71,0.00,,,0.04,weatherlink.com 1.10,2013-01-28 04:29:00,
2013-01-27 23:44:00,32.1,25.0,30.63,East,98,5.0,7.0,75,0.00,,,0.04,weatherlink.com 1.10,2013-01-28 04:44:00,
2013-01-27 23:59:00,31.7,25.0,30.63,East,88,1.0,9.0,76,0.00,,,0.04,weatherlink.com 1.10,2013-01-28 04:59:00,